Sheridan, WY

10:44 AM MDT on March 29, 2017 (GMT -0600)
Sheridan County

Weather History for KSHR - September, 2014

Change the Weather History Date:

Tuesday, September 9, 2014

  Actual Average Record
Temperature  
Mean Temperature 58 °F 61 °F  
Max Temperature 70 °F 78 °F 97 °F (1998)
Min Temperature 45 °F 44 °F 28 °F (1929)
Degree Days  
Heating Degree Days 7 5  
Month to date heating degree days 47 38  
Since 1 July heating degree days 97 100  
Cooling Degree Days 0 1  
Month to date cooling degree days 7 17  
Year to date cooling degree days 325 407  
Growing Degree Days 8 (Base 50)    
Moisture  
Dew Point 45 °F    
Average Humidity 70    
Maximum Humidity 93    
Minimum Humidity 46    
Precipitation  
Precipitation 0.06 in 0.05 in 0.44 in (1989)
Month to date precipitation 0.22 0.35  
Year to date precipitation 11.29 10.40  
Sea Level Pressure  
Sea Level Pressure 29.95 in    
Wind  
Wind Speed 13 mph (NW)    
Max Wind Speed 31 mph    
Max Gust Speed 37 mph    
Visibility 10 miles    
Events Rain , Thunderstorm    
T = Trace of Precipitation, MM = Missing Value Source: NWS Daily Summary

Daily Weather History Graph

Daily Weather History Graph

Search for Another Location

Airport or City:

Trip Planner

Search our weather history database for the weather conditions in past years. The results will help you decide how hot, cold, wet, or windy it might be!

Date:

Astronomy

Sep. 09, 2014 Rise Set
Actual Time 6:39 AM MDT 7:29 PM MDT
Civil Twilight 6:10 AM MDT 7:59 PM MDT
Nautical Twilight 5:34 AM MDT 8:34 PM MDT
Astronomical Twilight 4:57 AM MDT 9:11 PM MDT
Moon 7:46 PM MDT (9/9) 7:22 AM MDT (9/9)
Length of Visible Light 13h 49m
Length of Day
12h 50m
Full, 99% of the Moon is Illuminated
Sep 9
Full
Sep 15
Last Quarter
Sep 24
New
Oct 1
First Quarter
Oct 8
Full

Hourly Weather History & Observations

Time (MDT) Temp. Windchill Dew Point Humidity Pressure Visibility Wind Dir Wind Speed Gust Speed Precip Events Conditions
12:53 AM 61.0 °F - 42.1 °F 50% 29.66 in 10.0 mi NNW 5.8 mph - N/A   Clear
1:53 AM 57.0 °F - 37.9 °F 49% 29.68 in 10.0 mi SW 5.8 mph - N/A   Clear
2:53 AM 60.1 °F - 39.0 °F 46% 29.68 in 10.0 mi West 8.1 mph - N/A   Clear
3:53 AM 62.1 °F - 41.0 °F 46% 29.69 in 10.0 mi WNW 23.0 mph 29.9 mph N/A   Clear
4:53 AM 60.1 °F - 44.1 °F 55% 29.71 in 10.0 mi NW 21.9 mph 32.2 mph 0.00 in   Partly Cloudy
5:53 AM 55.0 °F - 48.0 °F 77% 29.78 in 10.0 mi NNW 6.9 mph - N/A   Clear
6:53 AM 55.9 °F - 48.9 °F 77% 29.83 in 10.0 mi North 17.3 mph - 0.00 in Rain Light Rain
7:45 AM 55.0 °F - 48.9 °F 80% 29.92 in 10.0 mi NW 15.0 mph - 0.00 in Rain Light Rain
7:53 AM 55.0 °F - 48.9 °F 80% 29.86 in 10.0 mi NW 10.4 mph - 0.00 in   Mostly Cloudy
8:28 AM 54.0 °F - 48.0 °F 80% 29.92 in 10.0 mi NW 13.8 mph - N/A   Scattered Clouds
8:53 AM 54.0 °F - 48.0 °F 80% 29.89 in 10.0 mi NNW 17.3 mph - N/A   Partly Cloudy
9:11 AM 54.0 °F - 48.0 °F 80% 29.95 in 10.0 mi NW 19.6 mph - N/A   Mostly Cloudy
9:53 AM 53.1 °F - 46.9 °F 80% 29.92 in 10.0 mi NW 16.1 mph - N/A   Overcast
10:53 AM 52.0 °F - 46.0 °F 80% 29.96 in 10.0 mi NW 17.3 mph - N/A   Overcast
11:16 AM 52.0 °F - 45.0 °F 77% 30.00 in 10.0 mi NW 17.3 mph - N/A   Overcast
11:53 AM 51.1 °F - 44.1 °F 77% 29.96 in 10.0 mi WNW 16.1 mph - N/A   Overcast
1:53 PM 52.0 °F - 44.1 °F 74% 29.97 in 10.0 mi WNW 12.7 mph - N/A   Overcast
2:53 PM 51.8 °F - 44.6 °F 76% 30.00 in 10.0 mi NW 8.1 mph - N/A   Overcast
3:53 PM 53.1 °F - 45.0 °F 74% 29.96 in 10.0 mi NNW 8.1 mph - N/A   Overcast
4:53 PM 52.0 °F - 45.0 °F 77% 29.98 in 10.0 mi WNW 15.0 mph - N/A   Overcast
5:53 PM 50.0 °F - 44.1 °F 80% 30.01 in 10.0 mi WNW 16.1 mph - 0.00 in Rain Light Rain
6:41 PM 48.0 °F - 44.1 °F 86% 30.05 in 10.0 mi NNW 15.0 mph - 0.00 in   Overcast
6:53 PM 48.0 °F - 43.0 °F 83% 30.04 in 10.0 mi NW 13.8 mph - 0.00 in Thunderstorm Overcast
7:08 PM 48.0 °F - 43.0 °F 83% 30.06 in 10.0 mi NW 11.5 mph - N/A   Overcast
7:19 PM 48.0 °F - 43.0 °F 83% 30.05 in 10.0 mi NNW 11.5 mph - N/A   Overcast
7:53 PM 46.9 °F - 44.1 °F 90% 30.05 in 10.0 mi WNW 11.5 mph - 0.04 in   Overcast
8:32 PM 46.9 °F - 44.1 °F 90% 30.09 in 10.0 mi NW 8.1 mph - N/A   Overcast
8:53 PM 46.9 °F - 45.0 °F 93% 30.09 in 10.0 mi WNW 6.9 mph - N/A   Overcast
9:09 PM 46.9 °F - 45.0 °F 93% 30.11 in 10.0 mi WNW 8.1 mph - N/A   Overcast
9:53 PM 46.0 °F 41.0 °F 43.0 °F 89% 30.12 in 10.0 mi WNW 10.4 mph - 0.00 in Rain Light Rain
10:53 PM 46.0 °F 42.5 °F 43.0 °F 89% 30.12 in 10.0 mi West 6.9 mph - 0.00 in Rain Light Rain
11:02 PM 46.0 °F 42.5 °F 43.0 °F 89% 30.11 in 10.0 mi WNW 6.9 mph - 0.01 in Rain Light Rain
11:53 PM 46.0 °F 41.4 °F 43.0 °F 89% 30.12 in 10.0 mi WNW 9.2 mph - 0.01 in   Overcast